SJV865 WIBB-WIII

Flight info

Callsign SJV865
Flight time 1h 21m
Altitude 37000
Route ISROR T5 BUNIK
Aircraft A320/M-SDE3FGHIRWY/LB1

Departure

Time 2026-04-16 09:58
Airport Sultan Syarif Kasim II International Airport / Roesmin Nurjadin AFB (WIBB)

Arrival

Time 2026-04-16 11:19
Airport Soekarno-Hatta International Airport (WIII)
Time Latitude Longitude Altitude Speed Heading
2026-04-16 09:28 0.46594 101.44690 0 ft 0 kts 91°
2026-04-16 09:47 0.46594 101.44674 38 ft 4 kts 89°
2026-04-16 09:48 0.46593 101.44647 92 ft 4 kts 85°
2026-04-16 09:48 0.46590 101.44621 123 ft 4 kts 74°
2026-04-16 09:48 0.46579 101.44598 124 ft 4 kts 29°
2026-04-16 09:48 0.46568 101.44594 123 ft 1 kts
2026-04-16 09:49 0.46566 101.44594 123 ft 0 kts
2026-04-16 09:51 0.46567 101.44594 123 ft 1 kts
2026-04-16 09:51 0.46577 101.44595 124 ft 2 kts
2026-04-16 09:52 0.46597 101.44595 126 ft 2 kts
2026-04-16 09:52 0.46614 101.44593 127 ft 3 kts 337°
2026-04-16 09:52 0.46628 101.44575 124 ft 4 kts 297°
2026-04-16 09:52 0.46631 101.44548 127 ft 4 kts 273°
2026-04-16 09:53 0.46633 101.44518 129 ft 5 kts 272°
2026-04-16 09:53 0.46635 101.44484 129 ft 5 kts 281°
2026-04-16 09:53 0.46666 101.44469 129 ft 5 kts 360°
2026-04-16 09:53 0.46703 101.44470 129 ft 5 kts
2026-04-16 09:54 0.46735 101.44471 129 ft 4 kts
2026-04-16 09:54 0.46757 101.44472 129 ft 4 kts
2026-04-16 09:54 0.46791 101.44473 130 ft 6 kts
2026-04-16 09:54 0.46840 101.44475 129 ft 8 kts
2026-04-16 09:55 0.46906 101.44477 129 ft 11 kts
2026-04-16 09:55 0.46977 101.44479 128 ft 9 kts
2026-04-16 09:55 0.47029 101.44494 124 ft 7 kts 28°
2026-04-16 09:55 0.47065 101.44508 124 ft 4 kts 359°
2026-04-16 09:56 0.47077 101.44491 127 ft 2 kts 262°
2026-04-16 09:56 0.47064 101.44484 126 ft 2 kts 195°
2026-04-16 09:56 0.47058 101.44483 127 ft 1 kts 187°
2026-04-16 09:56 0.47057 101.44483 127 ft 0 kts 187°
2026-04-16 09:57 0.46957 101.44477 128 ft 44 kts 180°
2026-04-16 09:57 0.46656 101.44470 129 ft 86 kts 181°
2026-04-16 09:57 0.45545 101.44436 126 ft 149 kts 181°
2026-04-16 09:57 0.44809 101.44418 234 ft 166 kts 180°
2026-04-16 09:58 0.43641 101.44369 757 ft 169 kts 181°
2026-04-16 09:58 0.42470 101.44321 1423 ft 168 kts 180°
2026-04-16 09:58 0.41294 101.44411 1851 ft 181 kts 155°
2026-04-16 09:58 0.40326 101.45259 2136 ft 194 kts 129°
2026-04-16 09:59 0.39143 101.46763 2362 ft 223 kts 128°
2026-04-16 09:59 0.38489 101.47601 2716 ft 229 kts 128°
2026-04-16 09:59 0.37484 101.48869 3376 ft 236 kts 129°
2026-04-16 09:59 0.36447 101.50153 4089 ft 240 kts 129°
2026-04-16 10:00 0.35386 101.51438 4938 ft 238 kts 130°
2026-04-16 10:00 0.34315 101.52725 5659 ft 243 kts 130°
2026-04-16 10:00 0.33233 101.54035 6391 ft 246 kts 130°
2026-04-16 10:01 0.31046 101.56687 7831 ft 252 kts 130°
2026-04-16 10:01 0.29909 101.58052 8506 ft 256 kts 130°
2026-04-16 10:01 0.28751 101.59439 9234 ft 259 kts 130°
2026-04-16 10:01 0.27594 101.60820 9865 ft 265 kts 130°
2026-04-16 10:02 0.26400 101.62244 10552 ft 268 kts 130°
2026-04-16 10:02 0.25172 101.63708 10902 ft 286 kts 130°
2026-04-16 10:02 0.23849 101.65282 11162 ft 305 kts 130°
2026-04-16 10:02 0.22446 101.66950 11406 ft 324 kts 130°
2026-04-16 10:03 0.20953 101.68735 11534 ft 345 kts 130°
2026-04-16 10:03 0.19377 101.70606 11868 ft 356 kts 131°
2026-04-16 10:03 0.17751 101.72498 12405 ft 361 kts 131°
2026-04-16 10:03 0.16096 101.74404 12990 ft 364 kts 131°
2026-04-16 10:04 0.14432 101.76319 13559 ft 367 kts 131°
2026-04-16 10:04 0.12755 101.78254 14122 ft 369 kts 131°
2026-04-16 10:04 0.11069 101.80201 14681 ft 372 kts 131°
2026-04-16 10:04 0.09371 101.82164 15229 ft 375 kts 131°
2026-04-16 10:05 0.07662 101.84143 15769 ft 377 kts 131°
2026-04-16 10:05 0.05945 101.86136 16298 ft 379 kts 131°
2026-04-16 10:05 0.04219 101.88141 16814 ft 382 kts 131°
2026-04-16 10:05 0.02482 101.90158 17324 ft 384 kts 131°
2026-04-16 10:06 0.00755 101.92162 17821 ft 386 kts 131°
2026-04-16 10:06 -0.01000 101.94201 18313 ft 389 kts 131°
2026-04-16 10:06 -0.02775 101.96265 18800 ft 391 kts 131°
2026-04-16 10:06 -0.04553 101.98331 19264 ft 394 kts 131°
2026-04-16 10:07 -0.06349 102.00419 19718 ft 397 kts 131°
2026-04-16 10:07 -0.08159 102.02519 20156 ft 400 kts 131°
2026-04-16 10:07 -0.09982 102.04631 20587 ft 403 kts 131°
2026-04-16 10:07 -0.11821 102.06762 20997 ft 406 kts 131°
2026-04-16 10:08 -0.13676 102.08913 21408 ft 409 kts 131°
2026-04-16 10:08 -0.15536 102.11072 21802 ft 412 kts 131°
2026-04-16 10:08 -0.17409 102.13247 22179 ft 415 kts 131°
2026-04-16 10:08 -0.19297 102.15442 22561 ft 417 kts 131°
2026-04-16 10:09 -0.21192 102.17645 22929 ft 420 kts 131°
2026-04-16 10:09 -0.23105 102.19867 23285 ft 422 kts 131°
2026-04-16 10:09 -0.25023 102.22093 23638 ft 425 kts 131°
2026-04-16 10:09 -0.26956 102.24335 23982 ft 427 kts 131°
2026-04-16 10:10 -0.28903 102.26592 24316 ft 430 kts 131°
2026-04-16 10:10 -0.30859 102.28860 24661 ft 432 kts 131°
2026-04-16 10:10 -0.32711 102.31226 24996 ft 434 kts 123°
2026-04-16 10:10 -0.34189 102.33871 25326 ft 436 kts 118°
2026-04-16 10:11 -0.35619 102.36551 25664 ft 438 kts 118°
2026-04-16 10:11 -0.37038 102.39211 25993 ft 440 kts 118°
2026-04-16 10:11 -0.38483 102.41912 26301 ft 441 kts 119°
2026-04-16 10:11 -0.39951 102.44650 26669 ft 441 kts 119°
2026-04-16 10:12 -0.41380 102.47314 27047 ft 441 kts 119°
2026-04-16 10:12 -0.42830 102.50018 27404 ft 441 kts 118°
2026-04-16 10:12 -0.44276 102.52716 27727 ft 442 kts 118°
2026-04-16 10:12 -0.45733 102.55428 28035 ft 443 kts 118°
2026-04-16 10:13 -0.47194 102.58149 28336 ft 445 kts 118°
2026-04-16 10:13 -0.48657 102.60876 28645 ft 446 kts 118°
2026-04-16 10:13 -0.50129 102.63609 29015 ft 445 kts 118°
2026-04-16 10:13 -0.51591 102.66325 29445 ft 443 kts 118°
2026-04-16 10:14 -0.53055 102.69035 29866 ft 442 kts 118°
2026-04-16 10:14 -0.54510 102.71729 30279 ft 440 kts 118°
2026-04-16 10:14 -0.55958 102.74418 30684 ft 439 kts 118°
2026-04-16 10:14 -0.57399 102.77098 31069 ft 438 kts 118°
2026-04-16 10:15 -0.58843 102.79785 31409 ft 438 kts 118°
2026-04-16 10:15 -0.60282 102.82462 31762 ft 438 kts 118°
2026-04-16 10:15 -0.61721 102.85140 32117 ft 438 kts 118°
2026-04-16 10:15 -0.63162 102.87819 32454 ft 437 kts 118°
2026-04-16 10:16 -0.64602 102.90494 32790 ft 437 kts 118°
2026-04-16 10:16 -0.66041 102.93166 33129 ft 437 kts 118°
2026-04-16 10:16 -0.67483 102.95841 33442 ft 437 kts 118°
2026-04-16 10:16 -0.68920 102.98512 33735 ft 436 kts 118°
2026-04-16 10:17 -0.70341 103.01154 34024 ft 437 kts 118°
2026-04-16 10:17 -0.71775 103.03822 34317 ft 436 kts 118°
2026-04-16 10:17 -0.73213 103.06495 34608 ft 436 kts 118°
2026-04-16 10:17 -0.74647 103.09157 34903 ft 435 kts 118°
2026-04-16 10:18 -0.76081 103.11820 35196 ft 434 kts 118°
2026-04-16 10:18 -0.77510 103.14476 35473 ft 434 kts 118°
2026-04-16 10:18 -0.78935 103.17132 35752 ft 433 kts 117°
2026-04-16 10:18 -0.80358 103.19778 36020 ft 432 kts 117°
2026-04-16 10:19 -0.81778 103.22415 36263 ft 431 kts 117°
2026-04-16 10:19 -0.83199 103.25049 36503 ft 431 kts 117°
2026-04-16 10:19 -0.84620 103.27689 36698 ft 431 kts 117°
2026-04-16 10:19 -0.86039 103.30332 36753 ft 434 kts 117°
2026-04-16 10:20 -0.89103 103.35605 36755 ft 443 kts 126°
2026-04-16 10:20 -0.93571 103.39943 36757 ft 455 kts 140°
2026-04-16 10:21 -0.98539 103.43947 36756 ft 462 kts 139°
2026-04-16 10:21 -1.03498 103.47965 36844 ft 462 kts 139°
2026-04-16 10:22 -1.08488 103.52010 36837 ft 461 kts 139°
2026-04-16 10:22 -1.13475 103.56052 36842 ft 462 kts 139°
2026-04-16 10:23 -1.18466 103.60095 36846 ft 462 kts 139°
2026-04-16 10:23 -1.23468 103.64146 36851 ft 462 kts 139°
2026-04-16 10:24 -1.28464 103.68192 36850 ft 462 kts 139°
2026-04-16 10:24 -1.33463 103.72240 36853 ft 462 kts 139°
2026-04-16 10:25 -1.38462 103.76290 36853 ft 462 kts 139°
2026-04-16 10:25 -1.43462 103.80332 36853 ft 462 kts 139°
2026-04-16 10:26 -1.48464 103.84377 36854 ft 462 kts 139°
2026-04-16 10:26 -1.53432 103.88405 36712 ft 463 kts 139°
2026-04-16 10:27 -1.58468 103.92490 36727 ft 464 kts 139°
2026-04-16 10:27 -1.63454 103.96530 36728 ft 464 kts 139°
2026-04-16 10:28 -1.68478 104.00594 36728 ft 464 kts 139°
2026-04-16 10:28 -1.73502 104.04661 36730 ft 465 kts 139°
2026-04-16 10:29 -1.78529 104.08734 36734 ft 465 kts 139°
2026-04-16 10:29 -1.83554 104.12812 36738 ft 465 kts 139°
2026-04-16 10:30 -1.88549 104.16861 36740 ft 465 kts 139°
2026-04-16 10:30 -1.93574 104.20933 36741 ft 465 kts 139°
2026-04-16 10:31 -1.98594 104.25005 36740 ft 465 kts 139°
2026-04-16 10:31 -2.03621 104.29071 36846 ft 465 kts 139°
2026-04-16 10:32 -2.08668 104.33160 36836 ft 466 kts 139°
2026-04-16 10:32 -2.13704 104.37242 36843 ft 466 kts 139°
2026-04-16 10:33 -2.18743 104.41337 36838 ft 466 kts 139°
2026-04-16 10:33 -2.23782 104.45418 36840 ft 466 kts 139°
2026-04-16 10:34 -2.28826 104.49506 36840 ft 466 kts 139°
2026-04-16 10:34 -2.33869 104.53590 36843 ft 467 kts 139°
2026-04-16 10:35 -2.38913 104.57676 36843 ft 467 kts 139°
2026-04-16 10:35 -2.43957 104.61763 36845 ft 467 kts 139°
2026-04-16 10:36 -2.48993 104.65854 36847 ft 467 kts 139°
2026-04-16 10:36 -2.54000 104.69918 36787 ft 464 kts 139°
2026-04-16 10:37 -2.58863 104.73863 36796 ft 463 kts 139°
2026-04-16 10:37 -2.63930 104.77972 36799 ft 462 kts 139°
2026-04-16 10:38 -2.68925 104.82017 36798 ft 461 kts 139°
2026-04-16 10:38 -2.73910 104.86065 36797 ft 461 kts 139°
2026-04-16 10:39 -2.78885 104.90106 36795 ft 461 kts 139°
2026-04-16 10:39 -2.83869 104.94144 36794 ft 461 kts 139°
2026-04-16 10:40 -2.88856 104.98185 36792 ft 461 kts 139°
2026-04-16 10:40 -2.93829 105.02223 36791 ft 461 kts 139°
2026-04-16 10:41 -2.98801 105.06263 36790 ft 461 kts 139°
2026-04-16 10:41 -3.03774 105.10303 36860 ft 459 kts 140°
2026-04-16 10:42 -3.08735 105.14330 36873 ft 459 kts 140°
2026-04-16 10:42 -3.13694 105.18357 36876 ft 459 kts 140°
2026-04-16 10:43 -3.18615 105.22353 36875 ft 458 kts 140°
2026-04-16 10:43 -3.23593 105.26395 36877 ft 458 kts 140°
2026-04-16 10:44 -3.28528 105.30434 36875 ft 458 kts 139°
2026-04-16 10:44 -3.33376 105.34488 36874 ft 458 kts 139°
2026-04-16 10:45 -3.38252 105.38591 36873 ft 458 kts 139°
2026-04-16 10:45 -3.43136 105.42688 36873 ft 458 kts 139°
2026-04-16 10:46 -3.48023 105.46767 36873 ft 458 kts 139°
2026-04-16 10:46 -3.52097 105.50161 36819 ft 458 kts 138°
2026-04-16 10:47 -3.56991 105.54238 36798 ft 458 kts 138°
2026-04-16 10:47 -3.61889 105.58333 36798 ft 459 kts 138°
2026-04-16 10:48 -3.66797 105.62430 36799 ft 460 kts 138°
2026-04-16 10:48 -3.71721 105.66537 36798 ft 460 kts 138°
2026-04-16 10:49 -3.76640 105.70649 36804 ft 461 kts 138°
2026-04-16 10:49 -3.81561 105.74766 36813 ft 461 kts 138°
2026-04-16 10:50 -3.86480 105.78881 36812 ft 461 kts 138°
2026-04-16 10:50 -3.91405 105.83001 36814 ft 461 kts 138°
2026-04-16 10:51 -3.96339 105.87120 36818 ft 461 kts 138°
2026-04-16 10:51 -4.01237 105.91205 36818 ft 461 kts 138°
2026-04-16 10:52 -4.06161 105.95328 36821 ft 461 kts 138°
2026-04-16 10:52 -4.11084 105.99448 36817 ft 461 kts 138°
2026-04-16 10:53 -4.16009 106.03569 36821 ft 461 kts 138°
2026-04-16 10:53 -4.20934 106.07693 36820 ft 461 kts 138°
2026-04-16 10:54 -4.25864 106.11808 36816 ft 461 kts 138°
2026-04-16 10:54 -4.30795 106.15926 36822 ft 461 kts 138°
2026-04-16 10:55 -4.35721 106.20044 36818 ft 461 kts 138°
2026-04-16 10:55 -4.40230 106.23829 36819 ft 461 kts 138°
2026-04-16 10:56 -4.45148 106.27957 36819 ft 461 kts 138°
2026-04-16 10:56 -4.50079 106.32084 36860 ft 463 kts 139°
2026-04-16 10:57 -4.55042 106.36243 36865 ft 466 kts 138°
2026-04-16 10:57 -4.59972 106.40385 36866 ft 466 kts 138°
2026-04-16 10:58 -4.65120 106.44323 36817 ft 465 kts 150°
2026-04-16 10:58 -4.68138 106.45504 36093 ft 470 kts 166°
2026-04-16 10:58 -4.71411 106.45788 35310 ft 476 kts 182°
2026-04-16 10:59 -4.74691 106.45228 34523 ft 481 kts 191°
2026-04-16 10:59 -4.77960 106.44472 33696 ft 484 kts 191°
2026-04-16 10:59 -4.81243 106.43720 33001 ft 483 kts 191°
2026-04-16 10:59 -4.84523 106.43030 32333 ft 480 kts 186°
2026-04-16 11:00 -4.87841 106.42687 31644 ft 478 kts 184°
2026-04-16 11:00 -4.91151 106.42371 31030 ft 475 kts 184°
2026-04-16 11:00 -4.94444 106.42051 30230 ft 476 kts 184°
2026-04-16 11:00 -4.97703 106.41732 29523 ft 475 kts 184°
2026-04-16 11:01 -5.00981 106.41411 28808 ft 472 kts 184°
2026-04-16 11:01 -5.04265 106.41092 27905 ft 475 kts 184°
2026-04-16 11:01 -5.07543 106.40771 27193 ft 471 kts 184°
2026-04-16 11:01 -5.10782 106.40450 26570 ft 466 kts 184°
2026-04-16 11:02 -5.13993 106.40134 25899 ft 461 kts 184°
2026-04-16 11:02 -5.17199 106.39820 24675 ft 467 kts 184°
2026-04-16 11:02 -5.20446 106.39506 23654 ft 469 kts 184°
2026-04-16 11:02 -5.23686 106.39191 22805 ft 465 kts 184°
2026-04-16 11:03 -5.26912 106.38877 21737 ft 468 kts 184°
2026-04-16 11:03 -5.30160 106.38561 21199 ft 469 kts 184°
2026-04-16 11:03 -5.36643 106.37923 20825 ft 467 kts 185°
2026-04-16 11:04 -5.39878 106.37604 20312 ft 467 kts 185°
2026-04-16 11:04 -5.43115 106.37288 19328 ft 465 kts 185°
2026-04-16 11:04 -5.46288 106.36979 18756 ft 453 kts 185°
2026-04-16 11:04 -5.49401 106.36676 17999 ft 446 kts 185°
2026-04-16 11:05 -5.52479 106.36376 17207 ft 441 kts 185°
2026-04-16 11:05 -5.55473 106.36084 16430 ft 436 kts 185°
2026-04-16 11:05 -5.58510 106.35790 15666 ft 431 kts 185°
2026-04-16 11:05 -5.61439 106.35507 14942 ft 425 kts 185°
2026-04-16 11:06 -5.64346 106.35227 14241 ft 420 kts 185°
2026-04-16 11:06 -5.67239 106.34946 13548 ft 416 kts 185°
2026-04-16 11:06 -5.70102 106.34665 12894 ft 411 kts 185°
2026-04-16 11:06 -5.72917 106.34387 12185 ft 407 kts 185°
2026-04-16 11:07 -5.75727 106.34111 11676 ft 402 kts 185°
2026-04-16 11:07 -5.78513 106.33839 11243 ft 401 kts 185°
2026-04-16 11:07 -5.81281 106.33569 10709 ft 398 kts 186°
2026-04-16 11:07 -5.84024 106.33297 10262 ft 393 kts 186°
2026-04-16 11:08 -5.86747 106.33028 10173 ft 390 kts 186°
2026-04-16 11:08 -5.89381 106.32770 10049 ft 370 kts 186°
2026-04-16 11:08 -5.91853 106.32531 9919 ft 352 kts 186°
2026-04-16 11:08 -5.94241 106.32301 9802 ft 337 kts 186°
2026-04-16 11:09 -5.96500 106.32086 9668 ft 314 kts 185°
2026-04-16 11:09 -5.98635 106.31886 9070 ft 307 kts 185°
2026-04-16 11:09 -6.00760 106.31685 8253 ft 308 kts 185°
2026-04-16 11:09 -6.02894 106.31482 7460 ft 307 kts 185°
2026-04-16 11:10 -6.04977 106.31467 7130 ft 290 kts 171°
2026-04-16 11:10 -6.06885 106.31804 7067 ft 267 kts 169°
2026-04-16 11:10 -6.08634 106.32109 7058 ft 244 kts 169°
2026-04-16 11:10 -6.10250 106.32389 7059 ft 236 kts 169°
2026-04-16 11:11 -6.11861 106.32671 7061 ft 235 kts 169°
2026-04-16 11:11 -6.13467 106.32951 7061 ft 234 kts 169°
2026-04-16 11:11 -6.15079 106.33232 7017 ft 236 kts 170°
2026-04-16 11:11 -6.16699 106.33516 6930 ft 236 kts 170°
2026-04-16 11:12 -6.17292 106.33621 6916 ft 236 kts 170°
2026-04-16 11:12 -6.18907 106.33907 6899 ft 236 kts 169°
2026-04-16 11:12 -6.20375 106.34494 6897 ft 223 kts 144°
2026-04-16 11:12 -6.21402 106.35605 6895 ft 216 kts 122°
2026-04-16 11:13 -6.22192 106.36888 6895 ft 216 kts 123°
2026-04-16 11:13 -6.22989 106.38174 6726 ft 221 kts 121°
2026-04-16 11:13 -6.23531 106.39650 6123 ft 231 kts 97°
2026-04-16 11:13 -6.23431 106.41272 5501 ft 237 kts 73°
2026-04-16 11:14 -6.22886 106.42706 4919 ft 242 kts 68°
2026-04-16 11:14 -6.22257 106.44274 4302 ft 247 kts 69°
2026-04-16 11:14 -6.21624 106.45859 3894 ft 242 kts 69°
2026-04-16 11:14 -6.21010 106.47403 3559 ft 233 kts 69°
2026-04-16 11:15 -6.20411 106.48906 3249 ft 224 kts 69°
2026-04-16 11:15 -6.19845 106.50329 2951 ft 215 kts 69°
2026-04-16 11:15 -6.19305 106.51685 2682 ft 207 kts 69°
2026-04-16 11:15 -6.18781 106.53002 2431 ft 197 kts 69°
2026-04-16 11:16 -6.18287 106.54243 2163 ft 185 kts 69°
2026-04-16 11:16 -6.17828 106.55394 1924 ft 169 kts 68°
2026-04-16 11:16 -6.17410 106.56443 1705 ft 156 kts 68°
2026-04-16 11:16 -6.17019 106.57427 1502 ft 149 kts 67°
2026-04-16 11:17 -6.16637 106.58387 1299 ft 147 kts 67°
2026-04-16 11:17 -6.16259 106.59339 1102 ft 146 kts 66°
2026-04-16 11:17 -6.15882 106.60286 918 ft 146 kts 66°
2026-04-16 11:17 -6.15505 106.61230 717 ft 146 kts 66°
2026-04-16 11:18 -6.15132 106.62165 540 ft 146 kts 66°
2026-04-16 11:18 -6.14756 106.63110 334 ft 145 kts 66°
2026-04-16 11:18 -6.14369 106.64042 145 ft 145 kts 66°
2026-04-16 11:18 -6.13996 106.64975 42 ft 136 kts 66°
2026-04-16 11:19 -6.13702 106.65729 38 ft 92 kts 68°
2026-04-16 11:19 -6.13527 106.66165 38 ft 43 kts 68°
2026-04-16 11:19 -6.13470 106.66313 40 ft 15 kts 69°
2026-04-16 11:19 -6.13430 106.66417 40 ft 17 kts 69°
2026-04-16 11:20 -6.13387 106.66531 42 ft 14 kts 68°
2026-04-16 11:20 -6.13343 106.66581 40 ft 10 kts 42°
2026-04-16 11:20 -6.13299 106.66621 41 ft 9 kts 42°
2026-04-16 11:20 -6.13241 106.66670 40 ft 13 kts 37°
2026-04-16 11:21 -6.13164 106.66694 39 ft 11 kts
2026-04-16 11:21 -6.13103 106.66740 38 ft 13 kts 62°
2026-04-16 11:21 -6.13068 106.66833 38 ft 15 kts 68°
2026-04-16 11:21 -6.13024 106.66941 38 ft 18 kts 68°
2026-04-16 11:22 -6.12974 106.67067 37 ft 20 kts 68°
2026-04-16 11:22 -6.12920 106.67204 38 ft 22 kts 68°
2026-04-16 11:22 -6.12860 106.67353 38 ft 24 kts 69°
2026-04-16 11:22 -6.12784 106.67512 36 ft 26 kts 60°
2026-04-16 11:23 -6.12688 106.67674 38 ft 28 kts 59°
2026-04-16 11:23 -6.12553 106.67815 37 ft 29 kts 30°
2026-04-16 11:23 -6.12355 106.67850 37 ft 30 kts 352°
2026-04-16 11:23 -6.12149 106.67780 37 ft 32 kts 339°
2026-04-16 11:24 -6.11945 106.67698 36 ft 33 kts 338°
2026-04-16 11:24 -6.11734 106.67615 37 ft 34 kts 339°
2026-04-16 11:24 -6.11512 106.67526 37 ft 35 kts 339°
2026-04-16 11:24 -6.11284 106.67438 37 ft 36 kts 339°
2026-04-16 11:25 -6.11100 106.67341 37 ft 24 kts 306°
2026-04-16 11:25 -6.11099 106.67175 37 ft 26 kts 256°
2026-04-16 11:25 -6.11145 106.66995 37 ft 27 kts 254°
2026-04-16 11:25 -6.11219 106.66812 38 ft 29 kts 248°
2026-04-16 11:26 -6.11295 106.66617 38 ft 31 kts 248°
2026-04-16 11:26 -6.11376 106.66410 38 ft 32 kts 249°
2026-04-16 11:26 -6.11462 106.66196 38 ft 34 kts 248°
2026-04-16 11:26 -6.11551 106.65975 37 ft 35 kts 248°
2026-04-16 11:27 -6.11644 106.65743 37 ft 36 kts 248°
2026-04-16 11:27 -6.11738 106.65505 37 ft 33 kts 248°
2026-04-16 11:27 -6.11786 106.65386 35 ft 15 kts 248°
2026-04-16 11:27 -6.11826 106.65293 38 ft 12 kts 236°
2026-04-16 11:28 -6.11887 106.65280 38 ft 6 kts 151°
2026-04-16 11:28 -6.11897 106.65291 38 ft 2 kts 132°
2026-04-16 11:28 -6.11914 106.65304 38 ft 4 kts 157°
2026-04-16 11:28 -6.11938 106.65323 36 ft 5 kts 142°
2026-04-16 11:29 -6.11973 106.65321 35 ft 3 kts 201°
2026-04-16 11:29 -6.11994 106.65308 38 ft 2 kts 211°
2026-04-16 11:29 -6.12002 106.65303 36 ft 2 kts 213°
2026-04-16 11:29 -6.12007 106.65300 38 ft 0 kts 213°
2026-04-16 11:30 -6.12012 106.65297 38 ft 0 kts 213°